This is the latest recevied weather packets stored in our database for station/object MM1PTT-13. If no packets are shown the sender has not sent any weather packets the latest 1 day(s).
| Time | Temp. | Humidity | Pressure | Rain* | Wind** | Luminosity | Snow |
|---|---|---|---|---|---|---|---|
| 1778052643 | 6.67° C | 69% | 987.8 hPa | 0 mm | - | 190 W/m² | - |
| 1778051742 | 6.67° C | 70% | 988.1 hPa | 0 mm | - | 172 W/m² | - |
| 1778051443 | 6.11° C | 72% | 988.1 hPa | 0 mm | - | 146 W/m² | - |
| 1778051143 | 6.11° C | 70% | 988.1 hPa | 0 mm | - | 150 W/m² | - |
| 1778050843 | 6.11° C | 71% | 988.1 hPa | 0 mm | - | 151 W/m² | - |
| 1778050543 | 6.11° C | 73% | 988.1 hPa | 0 mm | - | 131 W/m² | - |
| 1778049944 | 5.56° C | 74% | 988.1 hPa | 0 mm | - | 118 W/m² | - |
| 1778049043 | 5.56° C | 78% | 987.8 hPa | 0 mm | - | 117 W/m² | - |
| 1778048443 | 5.56° C | 79% | 988.1 hPa | 0 mm | - | 103 W/m² | - |
| 1778048142 | 5° C | 79% | 987.8 hPa | 0 mm | - | 98 W/m² | - |
| 1778047842 | 5° C | 80% | 988.1 hPa | 0 mm | - | 86 W/m² | - |
| 1778047542 | 5° C | 81% | 987.8 hPa | 0 mm | - | 86 W/m² | - |
| 1778046943 | 5° C | 80% | 987.8 hPa | 0 mm | - | 75 W/m² | - |
| 1778046342 | 4.44° C | 80% | 988.1 hPa | 0 mm | - | 63 W/m² | - |
| 1778045142 | 4.44° C | 82% | 988.1 hPa | 0 mm | - | 41 W/m² | - |
| 1778044542 | 4.44° C | 81% | 988.1 hPa | 0 mm | - | 33 W/m² | - |
| 1778044243 | 4.44° C | 80% | 988.1 hPa | 0 mm | - | 28 W/m² | - |
| 1778043943 | 4.44° C | 80% | 987.8 hPa | 0 mm | - | 24 W/m² | - |
| 1778043643 | 3.89° C | 82% | 987.8 hPa | 0 mm | - | 21 W/m² | - |
| 1778043043 | 3.89° C | 81% | 987.8 hPa | 0 mm | - | 14 W/m² | - |
| 1778042142 | 3.89° C | 82% | 987.8 hPa | 0 mm | - | 10 W/m² | - |
| 1778041843 | 3.89° C | 81% | 987.8 hPa | 0 mm | - | 8 W/m² | - |
| 1778041543 | 3.89° C | 81% | 987.8 hPa | 0 mm | - | 6 W/m² | - |
| 1778040942 | 3.89° C | 80% | 987.8 hPa | 0 mm | - | 3 W/m² | - |
| 1778040642 | 3.89° C | 80% | 987.8 hPa | 0 mm | - | 2 W/m² | - |
* Rain latest hour (hover to see other rain measurements)
** Current wind speed in m/s (hover to see current wind gust speed)